| time (UTC) | temp C | wind direction | speed KPH | gust KPH | rain 1hr cm | rain 24hr cm | rain mn cm | humidity % | barometer mb |
| 20260503010038 | 18 | 0 | 0.0 | 0.0 | 0.00 | 0.00 | 0.00 | 67 | 1016.4 |
| 20260503005531 | 18 | 0 | 0.0 | 8.0 | 0.00 | 0.00 | 0.00 | 67 | 1016.4 |
| 20260503005034 | 18 | 0 | 0.0 | 8.0 | 0.00 | 0.00 | 0.00 | 67 | 1016.3 |
| 20260503004536 | 18 | 163 | 0.0 | 6.4 | 0.00 | 0.00 | 0.00 | 67 | 1016.4 |
| 20260503004030 | 18 | 0 | 0.0 | 4.8 | 0.00 | 0.00 | 0.00 | 67 | 1016.4 |
| 20260503003530 | 18 | 0 | 0.0 | 6.4 | 0.00 | 0.00 | 0.00 | 67 | 1016.4 |
| 20260503003041 | 19 | 143 | 3.2 | 11.3 | 0.00 | 0.00 | 0.00 | 67 | 1016.3 |
| 20260503002534 | 19 | 144 | 3.2 | 11.3 | 0.00 | 0.00 | 0.00 | 67 | 1016.5 |
| 20260503002030 | 19 | 156 | 4.8 | 9.7 | 0.00 | 0.00 | 0.00 | 67 | 1016.4 |
| 20260503001538 | 19 | 195 | 1.6 | 6.4 | 0.00 | 0.00 | 0.00 | 67 | 1016.4 |
| 20260503001030 | 19 | 199 | 1.6 | 11.3 | 0.00 | 0.00 | 0.00 | 67 | 1016.6 |
| 20260503000533 | 18 | 205 | 0.0 | 11.3 | 0.00 | 0.00 | 0.00 | 67 | 1016.5 |
| 20260503000054 | 18 | 209 | 4.8 | 14.5 | 0.00 | 0.00 | 0.00 | 67 | 1016.5 |
| 20260502235530 | 18 | 158 | 6.4 | 16.1 | 0.00 | 0.00 | 0.00 | 67 | 1016.6 |
| 20260502235030 | 18 | 138 | 3.2 | 16.1 | 0.00 | 0.00 | 0.00 | 67 | 1016.6 |
| 20260502234536 | 18 | 113 | 6.4 | 16.1 | 0.00 | 0.00 | 0.00 | 67 | 1016.7 |
| 20260502234033 | 18 | 148 | 8.0 | 16.1 | 0.00 | 0.00 | 0.00 | 67 | 1016.7 |
| 20260502233530 | 18 | 105 | 4.8 | 14.5 | 0.00 | 0.00 | 0.00 | 67 | 1016.7 |
| 20260502233042 | 18 | 102 | 8.0 | 14.5 | 0.00 | 0.00 | 0.00 | 67 | 1016.8 |
| 20260502232534 | 18 | 136 | 3.2 | 11.3 | 0.00 | 0.00 | 0.00 | 67 | 1016.8 |
| 20260502232030 | 18 | 161 | 4.8 | 12.9 | 0.00 | 0.00 | 0.00 | 67 | 1017.0 |
| 20260502231558 | 18 | 142 | 4.8 | 12.9 | 0.00 | 0.00 | 0.00 | 67 | 1016.8 |
| 20260502231030 | 18 | 155 | 4.8 | 12.9 | 0.00 | 0.00 | 0.00 | 67 | 1016.8 |
| 20260502230530 | 18 | 157 | 3.2 | 16.1 | 0.00 | 0.00 | 0.00 | 67 | 1017.0 |
| 20260502230042 | 18 | 146 | 3.2 | 16.1 | 0.00 | 0.00 | 0.00 | 67 | 1017.0 |
| 20260502225530 | 18 | 138 | 4.8 | 12.9 | 0.00 | 0.00 | 0.00 | 67 | 1017.1 |
| 20260502225034 | 18 | 181 | 3.2 | 24.1 | 0.00 | 0.00 | 0.00 | 67 | 1017.0 |
| 20260502224538 | 18 | 156 | 11.3 | 24.1 | 0.00 | 0.00 | 0.00 | 67 | 1017.1 |
| 20260502224030 | 18 | 134 | 12.9 | 19.3 | 0.00 | 0.00 | 0.00 | 67 | 1017.1 |
| 20260502223530 | 18 | 144 | 9.7 | 19.3 | 0.00 | 0.00 | 0.00 | 67 | 1017.2 |
| 20260502223040 | 18 | 161 | 9.7 | 19.3 | 0.00 | 0.00 | 0.00 | 67 | 1017.2 |
| 20260502222531 | 18 | 179 | 6.4 | 12.9 | 0.00 | 0.00 | 0.00 | 67 | 1017.2 |
| 20260502222031 | 18 | 171 | 3.2 | 30.6 | 0.00 | 0.00 | 0.00 | 67 | 1017.3 |
| 20260502221549 | 18 | 167 | 6.4 | 30.6 | 0.00 | 0.00 | 0.00 | 67 | 1017.4 |
| 20260502221031 | 18 | 138 | 12.9 | 27.4 | 0.00 | 0.00 | 0.00 | 67 | 1017.4 |
| 20260502220530 | 19 | 138 | 9.7 | 25.7 | 0.00 | 0.00 | 0.00 | 67 | 1017.4 |
| 20260502220048 | 20 | 133 | 3.2 | 16.1 | 0.00 | 0.00 | 0.00 | 67 | 1017.6 |
| 20260502215532 | 19 | 87 | 4.8 | 16.1 | 0.00 | 0.00 | 0.00 | 67 | 1017.6 |
| 20260502215031 | 18 | 0 | 3.2 | 17.7 | 0.00 | 0.00 | 0.00 | 67 | 1017.7 |
| 20260502214550 | 18 | 136 | 1.6 | 19.3 | 0.00 | 0.00 | 0.00 | 67 | 1017.8 |
| 20260502214031 | 18 | 125 | 11.3 | 20.9 | 0.00 | 0.00 | 0.00 | 67 | 1018.0 |
| 20260502213530 | 18 | 166 | 9.7 | 22.5 | 0.00 | 0.00 | 0.00 | 67 | 1018.0 |
| 20260502213042 | 18 | 143 | 12.9 | 22.5 | 0.00 | 0.00 | 0.00 | 67 | 1018.1 |
| 20260502212531 | 18 | 149 | 9.7 | 19.3 | 0.00 | 0.00 | 0.00 | 67 | 1018.2 |
| 20260502212032 | 18 | 174 | 9.7 | 27.4 | 0.00 | 0.00 | 0.00 | 67 | 1018.2 |
| 20260502211542 | 18 | 165 | 14.5 | 27.4 | 0.00 | 0.00 | 0.00 | 67 | 1018.2 |
| 20260502211030 | 18 | 173 | 8.0 | 29.0 | 0.00 | 0.00 | 0.00 | 67 | 1018.3 |
| 20260502210534 | 18 | 141 | 16.1 | 29.0 | 0.00 | 0.00 | 0.00 | 67 | 1018.4 |
| 20260502210040 | 18 | 171 | 3.2 | 29.0 | 0.00 | 0.00 | 0.00 | 67 | 1018.5 |
| 20260502205531 | 18 | 200 | 9.7 | 29.0 | 0.00 | 0.00 | 0.00 | 66 | 1018.6 |
| 20260502205030 | 18 | 204 | 14.5 | 25.7 | 0.00 | 0.00 | 0.00 | 67 | 1018.5 |
| 20260502204548 | 18 | 227 | 16.1 | 25.7 | 0.00 | 0.00 | 0.00 | 67 | 1018.5 |
| 20260502204032 | 18 | 169 | 3.2 | 19.3 | 0.00 | 0.00 | 0.00 | 67 | 1018.6 |
| 20260502203530 | 18 | 183 | 8.0 | 24.1 | 0.00 | 0.00 | 0.00 | 66 | 1018.6 |
| 20260502203047 | 18 | 200 | 9.7 | 24.1 | 0.00 | 0.00 | 0.00 | 66 | 1018.7 |
| 20260502202532 | 18 | 188 | 14.5 | 22.5 | 0.00 | 0.00 | 0.00 | 67 | 1018.7 |
| 20260502202030 | 18 | 198 | 4.8 | 27.4 | 0.00 | 0.00 | 0.00 | 67 | 1018.8 |
| 20260502201543 | 18 | 144 | 3.2 | 27.4 | 0.00 | 0.00 | 0.00 | 67 | 1018.8 |
| 20260502201030 | 18 | 143 | 11.3 | 25.7 | 0.00 | 0.00 | 0.00 | 66 | 1018.8 |
| 20260502200530 | 18 | 150 | 6.4 | 17.7 | 0.00 | 0.00 | 0.00 | 66 | 1018.9 |
| 20260502200042 | 18 | 167 | 11.3 | 22.5 | 0.00 | 0.00 | 0.00 | 66 | 1018.9 |
| 20260502195530 | 18 | 155 | 14.5 | 22.5 | 0.00 | 0.00 | 0.00 | 67 | 1018.8 |
| 20260502195030 | 18 | 140 | 11.3 | 22.5 | 0.00 | 0.00 | 0.00 | 67 | 1018.7 |
| 20260502194548 | 18 | 119 | 4.8 | 22.5 | 0.00 | 0.00 | 0.00 | 67 | 1018.8 |
| 20260502194030 | 18 | 161 | 6.4 | 22.5 | 0.00 | 0.00 | 0.00 | 67 | 1018.9 |
| 20260502193530 | 17 | 126 | 3.2 | 19.3 | 0.00 | 0.00 | 0.00 | 67 | 1019.0 |
| 20260502193057 | 17 | 127 | 3.2 | 16.1 | 0.00 | 0.00 | 0.00 | 66 | 1019.2 |
| 20260502192531 | 17 | 161 | 8.0 | 25.7 | 0.00 | 0.00 | 0.00 | 67 | 1019.4 |
| 20260502192029 | 17 | 169 | 11.3 | 25.7 | 0.00 | 0.00 | 0.00 | 67 | 1019.4 |
| 20260502191542 | 17 | 125 | 6.4 | 19.3 | 0.00 | 0.00 | 0.00 | 67 | 1019.4 |
| 20260502191032 | 17 | 141 | 9.7 | 20.9 | 0.00 | 0.00 | 0.00 | 67 | 1019.4 |
| 20260502190533 | 17 | 138 | 6.4 | 20.9 | 0.00 | 0.00 | 0.00 | 67 | 1019.5 |
| 20260502190044 | 17 | 164 | 12.9 | 20.9 | 0.00 | 0.00 | 0.00 | 67 | 1019.6 |
| 20260502185530 | 17 | 175 | 9.7 | 20.9 | 0.00 | 0.00 | 0.00 | 66 | 1019.7 |
| 20260502185030 | 17 | 186 | 11.3 | 20.9 | 0.00 | 0.00 | 0.00 | 67 | 1019.7 |
| 20260502184543 | 17 | 159 | 8.0 | 20.9 | 0.00 | 0.00 | 0.00 | 66 | 1019.8 |
| 20260502184030 | 17 | 146 | 11.3 | 22.5 | 0.00 | 0.00 | 0.00 | 66 | 1019.9 |
| 20260502183532 | 16 | 148 | 8.0 | 27.4 | 0.00 | 0.00 | 0.00 | 66 | 1019.9 |
| 20260502183040 | 16 | 142 | 16.1 | 27.4 | 0.00 | 0.00 | 0.00 | 66 | 1020.0 |
| 20260502182529 | 16 | 190 | 12.9 | 22.5 | 0.00 | 0.00 | 0.00 | 66 | 1019.9 |
| 20260502182030 | 16 | 135 | 8.0 | 25.7 | 0.00 | 0.00 | 0.00 | 66 | 1020.1 |
| 20260502181539 | 16 | 138 | 9.7 | 25.7 | 0.00 | 0.00 | 0.00 | 66 | 1020.1 |
| 20260502181030 | 16 | 152 | 4.8 | 25.7 | 0.00 | 0.00 | 0.00 | 66 | 1020.1 |
| 20260502180532 | 16 | 141 | 11.3 | 25.7 | 0.00 | 0.00 | 0.00 | 66 | 1020.1 |
| 20260502164030 | 13 | 134 | 12.9 | 19.3 | 0.00 | 0.00 | 0.00 | 66 | 1020.8 |
| 20260502163531 | 13 | 146 | 8.0 | 16.1 | 0.00 | 0.00 | 0.00 | 66 | 1020.8 |
| 20260502163048 | 12 | 140 | 6.4 | 16.1 | 0.00 | 0.00 | 0.00 | 66 | 1020.9 |
| 20260502162531 | 12 | 151 | 6.4 | 14.5 | 0.00 | 0.00 | 0.00 | 66 | 1020.8 |
| 20260502162034 | 12 | 140 | 6.4 | 14.5 | 0.00 | 0.00 | 0.00 | 66 | 1020.9 |
| 20260502161603 | 12 | 146 | 6.4 | 12.9 | 0.00 | 0.00 | 0.00 | 66 | 1021.0 |
| 20260502161038 | 12 | 160 | 8.0 | 14.5 | 0.00 | 0.00 | 0.00 | 66 | 1020.9 |
| 20260502160532 | 11 | 161 | 8.0 | 14.5 | 0.00 | 0.00 | 0.00 | 65 | 1020.9 |
| 20260502152029 | 5 | 152 | 0.0 | 4.8 | 0.00 | 0.00 | 0.00 | 64 | 1021.0 |
| 20260502151544 | 4 | 0 | 0.0 | 3.2 | 0.00 | 0.00 | 0.00 | 64 | 1021.0 |
| 20260502151032 | 3 | 0 | 0.0 | 3.2 | 0.00 | 0.00 | 0.00 | 64 | 1021.0 |
| 20260502150529 | 3 | 0 | 1.6 | 3.2 | 0.00 | 0.00 | 0.00 | 64 | 1021.1 |
| 20260502130528 | -6 | 0 | 0.0 | 3.2 | 0.00 | 0.00 | 0.00 | 63 | 1020.6 |
| 20260502123533 | -7 | 0 | 0.0 | 3.2 | 0.00 | 0.00 | 0.00 | 62 | 1020.5 |
| 20260502123107 | -7 | 173 | 0.0 | 4.8 | 0.00 | 0.00 | 0.00 | 62 | 1020.5 |
| 20260502122530 | -7 | 0 | 1.6 | 4.8 | 0.00 | 0.00 | 0.00 | 62 | 1020.5 |
| 20260502122034 | -7 | 173 | 1.6 | 4.8 | 0.00 | 0.00 | 0.00 | 63 | 1020.5 |
| 20260502121544 | -6 | 0 | 0.0 | 0.0 | 0.00 | 0.00 | 0.00 | 63 | 1020.5 |
| 20260502121031 | -6 | 0 | 0.0 | 0.0 | 0.00 | 0.00 | 0.00 | 63 | 1020.6 |
| 20260502120532 | -6 | 0 | 0.0 | 0.0 | 0.00 | 0.00 | 0.00 | 63 | 1020.5 |
| 20260502115530 | -6 | 0 | 0.0 | 0.0 | 0.00 | 0.00 | 0.00 | 63 | 1020.6 |
| 20260502115030 | -6 | 0 | 0.0 | 0.0 | 0.00 | 0.00 | 0.00 | 63 | 1020.6 |
| 20260502114537 | -6 | 0 | 0.0 | 0.0 | 0.00 | 0.00 | 0.00 | 63 | 1020.6 |
| 20260502114030 | -6 | 0 | 0.0 | 0.0 | 0.00 | 0.00 | 0.00 | 63 | 1020.6 |
| 20260502113530 | -6 | 0 | 0.0 | 0.0 | 0.00 | 0.00 | 0.00 | 63 | 1020.7 |
| 20260502113036 | -5 | 0 | 0.0 | 0.0 | 0.00 | 0.00 | 0.00 | 63 | 1020.7 |
| 20260502112529 | -5 | 0 | 0.0 | 0.0 | 0.00 | 0.00 | 0.00 | 63 | 1020.8 |
| 20260502112029 | -5 | 0 | 0.0 | 0.0 | 0.00 | 0.00 | 0.00 | 63 | 1020.8 |
| 20260502111535 | -5 | 0 | 0.0 | 0.0 | 0.00 | 0.00 | 0.00 | 63 | 1020.8 |
| 20260502111030 | -5 | 0 | 0.0 | 0.0 | 0.00 | 0.00 | 0.00 | 63 | 1020.7 |
| 20260502110530 | -5 | 0 | 0.0 | 0.0 | 0.00 | 0.00 | 0.00 | 63 | 1020.8 |
| 20260502110048 | -5 | 0 | 0.0 | 0.0 | 0.00 | 0.00 | 0.00 | 63 | 1020.9 |
| 20260502105531 | -5 | 0 | 0.0 | 0.0 | 0.00 | 0.00 | 0.00 | 63 | 1020.9 |
| 20260502105032 | -5 | 0 | 0.0 | 0.0 | 0.00 | 0.00 | 0.00 | 63 | 1021.0 |
| 20260502104541 | -5 | 0 | 0.0 | 0.0 | 0.00 | 0.00 | 0.00 | 63 | 1020.9 |
| 20260502104030 | -5 | 0 | 0.0 | 0.0 | 0.00 | 0.00 | 0.00 | 63 | 1020.9 |
| 20260502103530 | -5 | 0 | 0.0 | 0.0 | 0.00 | 0.00 | 0.00 | 63 | 1020.9 |
| 20260502103036 | -5 | 0 | 0.0 | 3.2 | 0.00 | 0.00 | 0.00 | 63 | 1020.9 |
| 20260502102530 | -5 | 0 | 0.0 | 3.2 | 0.00 | 0.00 | 0.00 | 63 | 1021.0 |
| 20260502102037 | -5 | 0 | 0.0 | 3.2 | 0.00 | 0.00 | 0.00 | 63 | 1021.0 |
| 20260502101540 | -5 | 0 | 0.0 | 0.0 | 0.00 | 0.00 | 0.00 | 63 | 1020.9 |
| 20260502101030 | -5 | 0 | 0.0 | 0.0 | 0.00 | 0.00 | 0.00 | 63 | 1021.0 |
| 20260502100530 | -5 | 0 | 0.0 | 0.0 | 0.00 | 0.00 | 0.00 | 63 | 1020.9 |
| 20260502091028 | -3 | 0 | 0.0 | 0.0 | 0.00 | 0.00 | 0.00 | 63 | 1020.9 |
| 20260502090528 | -3 | 0 | 0.0 | 0.0 | 0.00 | 0.00 | 0.00 | 63 | 1021.0 |
| 20260502071029 | -1 | 173 | 1.6 | 4.8 | 0.00 | 0.00 | 0.00 | 63 | 1021.4 |
| 20260502070532 | -1 | 0 | 1.6 | 3.2 | 0.00 | 0.00 | 0.00 | 63 | 1021.4 |
| 20260502070041 | -1 | 173 | 0.0 | 3.2 | 0.00 | 0.00 | 0.00 | 63 | 1021.5 |
| 20260502065528 | 0 | 0 | 0.0 | 3.2 | 0.00 | 0.00 | 0.00 | 63 | 1021.3 |
| 20260502065030 | 0 | 0 | 0.0 | 4.8 | 0.00 | 0.00 | 0.00 | 63 | 1021.3 |
| 20260502064538 | 0 | 0 | 0.0 | 4.8 | 0.00 | 0.00 | 0.00 | 64 | 1021.4 |
| 20260502064031 | 0 | 0 | 0.0 | 0.0 | 0.00 | 0.00 | 0.00 | 64 | 1021.4 |
| 20260502063532 | 0 | 0 | 0.0 | 0.0 | 0.00 | 0.00 | 0.00 | 63 | 1021.3 |
| 20260502063051 | 0 | 0 | 0.0 | 0.0 | 0.00 | 0.00 | 0.00 | 63 | 1021.3 |
| 20260502062529 | 0 | 0 | 0.0 | 0.0 | 0.00 | 0.00 | 0.00 | 64 | 1021.1 |
| 20260502062029 | 0 | 0 | 0.0 | 0.0 | 0.00 | 0.00 | 0.00 | 64 | 1021.1 |
| 20260502061544 | 0 | 0 | 0.0 | 0.0 | 0.00 | 0.00 | 0.00 | 64 | 1021.1 |
| 20260502061028 | 0 | 0 | 0.0 | 0.0 | 0.00 | 0.00 | 0.00 | 63 | 1021.2 |
| 20260502060530 | 0 | 0 | 0.0 | 0.0 | 0.00 | 0.00 | 0.00 | 64 | 1021.0 |
| 20260502060045 | 0 | 0 | 0.0 | 0.0 | 0.00 | 0.00 | 0.00 | 64 | 1021.1 |
| 20260502055529 | 0 | 0 | 0.0 | 0.0 | 0.00 | 0.00 | 0.00 | 64 | 1021.1 |
| 20260502055032 | 0 | 0 | 0.0 | 8.0 | 0.00 | 0.00 | 0.00 | 64 | 1021.3 |
| 20260502054542 | 0 | 0 | 0.0 | 8.0 | 0.00 | 0.00 | 0.00 | 64 | 1021.3 |
| 20260502054030 | 1 | 0 | 0.0 | 0.0 | 0.00 | 0.00 | 0.00 | 64 | 1021.1 |
| 20260502053530 | 1 | 0 | 0.0 | 0.0 | 0.00 | 0.00 | 0.00 | 64 | 1021.0 |
| 20260502053043 | 1 | 0 | 0.0 | 0.0 | 0.00 | 0.00 | 0.00 | 64 | 1021.1 |
| 20260502052529 | 1 | 0 | 0.0 | 0.0 | 0.00 | 0.00 | 0.00 | 64 | 1021.1 |
| 20260502052029 | 1 | 0 | 0.0 | 0.0 | 0.00 | 0.00 | 0.00 | 64 | 1021.1 |
| 20260502051537 | 1 | 0 | 0.0 | 0.0 | 0.00 | 0.00 | 0.00 | 64 | 1021.1 |
| 20260502051029 | 2 | 0 | 0.0 | 0.0 | 0.00 | 0.00 | 0.00 | 64 | 1021.2 |
| 20260502050529 | 2 | 0 | 0.0 | 0.0 | 0.00 | 0.00 | 0.00 | 64 | 1021.2 |
| 20260502050047 | 3 | 0 | 0.0 | 1.6 | 0.00 | 0.00 | 0.00 | 64 | 1021.1 |
| 20260502045529 | 3 | 0 | 0.0 | 8.0 | 0.00 | 0.00 | 0.00 | 64 | 1021.3 |
| 20260502045031 | 2 | 0 | 0.0 | 9.7 | 0.00 | 0.00 | 0.00 | 64 | 1021.0 |
| 20260502044544 | 2 | 175 | 6.4 | 9.7 | 0.00 | 0.00 | 0.00 | 64 | 1021.0 |
| 20260502044028 | 3 | 171 | 0.0 | 8.0 | 0.00 | 0.00 | 0.00 | 64 | 1020.9 |
| 20260502043528 | 4 | 0 | 0.0 | 6.4 | 0.00 | 0.00 | 0.00 | 64 | 1021.0 |
| 20260502043035 | 5 | 171 | 0.0 | 3.2 | 0.00 | 0.00 | 0.00 | 64 | 1020.8 |
| 20260502042528 | 5 | 0 | 0.0 | 0.0 | 0.00 | 0.00 | 0.00 | 64 | 1020.6 |
| 20260502042032 | 5 | 0 | 0.0 | 0.0 | 0.00 | 0.00 | 0.00 | 64 | 1020.7 |
| 20260502041547 | 5 | 0 | 0.0 | 3.2 | 0.00 | 0.00 | 0.00 | 64 | 1020.6 |
| 20260502041028 | 6 | 0 | 0.0 | 3.2 | 0.00 | 0.00 | 0.00 | 64 | 1020.5 |
| 20260502040529 | 6 | 0 | 0.0 | 6.4 | 0.00 | 0.00 | 0.00 | 65 | 1020.4 |
| 20260502040040 | 6 | 0 | 0.0 | 6.4 | 0.00 | 0.00 | 0.00 | 65 | 1020.5 |
| 20260502035529 | 6 | 0 | 0.0 | 6.4 | 0.00 | 0.00 | 0.00 | 65 | 1020.4 |
| 20260502035029 | 6 | 171 | 1.6 | 6.4 | 0.00 | 0.00 | 0.00 | 65 | 1020.2 |
| 20260502034537 | 6 | 171 | 0.0 | 0.0 | 0.00 | 0.00 | 0.00 | 65 | 1020.3 |
| 20260502034029 | 7 | 0 | 0.0 | 0.0 | 0.00 | 0.00 | 0.00 | 65 | 1020.1 |
| 20260502033535 | 7 | 0 | 0.0 | 3.2 | 0.00 | 0.00 | 0.00 | 65 | 1020.1 |
| 20260502033044 | 7 | 0 | 0.0 | 8.0 | 0.00 | 0.00 | 0.00 | 65 | 1020.1 |
| 20260502032529 | 7 | 171 | 3.2 | 8.0 | 0.00 | 0.00 | 0.00 | 65 | 1019.9 |
| 20260502032029 | 9 | 0 | 1.6 | 3.2 | 0.00 | 0.00 | 0.00 | 65 | 1019.7 |
| 20260502031536 | 9 | 175 | 0.0 | 6.4 | 0.00 | 0.00 | 0.00 | 65 | 1019.6 |
| 20260502031029 | 10 | 0 | 0.0 | 6.4 | 0.00 | 0.00 | 0.00 | 65 | 1019.4 |
| 20260502030529 | 10 | 175 | 3.2 | 6.4 | 0.00 | 0.00 | 0.00 | 65 | 1019.4 |
| 20260502030042 | 10 | 175 | 3.2 | 6.4 | 0.00 | 0.00 | 0.00 | 65 | 1019.1 |
| 20260502025529 | 10 | 175 | 1.6 | 6.4 | 0.00 | 0.00 | 0.00 | 65 | 1019.2 |
| 20260502025031 | 10 | 175 | 1.6 | 6.4 | 0.00 | 0.00 | 0.00 | 65 | 1019.0 |
| 20260502024550 | 11 | 175 | 4.8 | 6.4 | 0.00 | 0.00 | 0.00 | 65 | 1019.1 |
| 20260502024028 | 11 | 175 | 1.6 | 6.4 | 0.00 | 0.00 | 0.00 | 65 | 1019.1 |
| 20260502023529 | 11 | 0 | 0.0 | 9.7 | 0.00 | 0.00 | 0.00 | 65 | 1019.0 |
| 20260502023036 | 12 | 175 | 1.6 | 9.7 | 0.00 | 0.00 | 0.00 | 66 | 1019.1 |
| 20260502022531 | 12 | 170 | 6.4 | 9.7 | 0.00 | 0.00 | 0.00 | 66 | 1019.0 |
| 20260502022032 | 13 | 164 | 6.4 | 9.7 | 0.00 | 0.00 | 0.00 | 66 | 1019.1 |
| 20260502021536 | 15 | 146 | 3.2 | 6.4 | 0.00 | 0.00 | 0.00 | 66 | 1019.0 |
| 20260502021029 | 15 | 146 | 1.6 | 6.4 | 0.00 | 0.00 | 0.00 | 66 | 1018.9 |
| 20260502020529 | 16 | 0 | 1.6 | 8.0 | 0.00 | 0.00 | 0.00 | 66 | 1018.9 |
| 20260502020035 | 16 | 145 | 1.6 | 8.0 | 0.00 | 0.00 | 0.00 | 66 | 1018.8 |
| 20260502015530 | 16 | 144 | 3.2 | 16.1 | 0.00 | 0.00 | 0.00 | 66 | 1018.9 |
| 20260502015028 | 16 | 148 | 4.8 | 17.7 | 0.00 | 0.00 | 0.00 | 66 | 1018.8 |
| 20260502014537 | 16 | 161 | 9.7 | 17.7 | 0.00 | 0.00 | 0.00 | 66 | 1018.8 |
| 20260502014028 | 16 | 163 | 3.2 | 9.7 | 0.00 | 0.00 | 0.00 | 66 | 1018.9 |
| 20260502013529 | 16 | 0 | 1.6 | 9.7 | 0.00 | 0.00 | 0.00 | 66 | 1018.8 |
| 20260502013042 | 16 | 161 | 3.2 | 11.3 | 0.00 | 0.00 | 0.00 | 66 | 1018.8 |
| 20260502012528 | 16 | 161 | 6.4 | 11.3 | 0.00 | 0.00 | 0.00 | 66 | 1018.8 |
| 20260502012028 | 17 | 153 | 3.2 | 17.7 | 0.00 | 0.00 | 0.00 | 66 | 1018.8 |
| 20260502011539 | 17 | 161 | 6.4 | 17.7 | 0.00 | 0.00 | 0.00 | 66 | 1018.8 |
| 20260502011028 | 17 | 165 | 4.8 | 14.5 | 0.00 | 0.00 | 0.00 | 66 | 1018.7 |
| 20260502010528 | 17 | 162 | 4.8 | 16.1 | 0.00 | 0.00 | 0.00 | 66 | 1018.8 |